Location: Halle (Saale)
(51.4825°N, 11.9705°E)
Time: 20:47:26
(UTC+01:00)

ISS - Visible Passes

Search period start: 25 February 2021 00:00
Search period end: 07 March 2021 00:00
Orbit: 417 x 422 km, 51.6° (Epoch: 26 February)

Date Brightness Start Highest point End Pass type
(mag) Time Alt. Az. Time Alt. Az. Time Alt. Az.
25 Feb -2.0 04:50:14 24° SSE 04:50:27 25° SSE 04:53:16 10° E visible
25 Feb -3.6 06:23:35 10° WSW 06:26:57 75° SSE 06:30:19 10° E visible
26 Feb -0.8 04:04:45 13° ESE 04:04:45 13° ESE 04:05:30 10° E visible
26 Feb -3.4 05:37:43 24° SW 05:39:32 60° SSE 05:42:51 10° E visible
27 Feb -3.1 04:52:10 46° SSE 04:52:10 46° SSE 04:55:22 10° E visible
27 Feb -3.7 06:25:28 10° W 06:28:51 87° N 06:32:13 10° E visible
28 Feb -1.2 04:06:33 19° E 04:06:33 19° E 04:07:50 10° E visible
28 Feb -3.8 05:39:31 25° WSW 05:41:22 86° SSE 05:44:45 10° E visible
01 Mar -3.8 04:53:52 75° S 04:53:54 75° SSE 04:57:16 10° E visible
02 Mar -1.5 04:08:11 25° E 04:08:11 25° E 04:09:46 10° E visible
02 Mar -3.8 05:41:08 21° W 05:43:13 85° N 05:46:36 10° E visible
03 Mar -3.9 04:55:25 73° W 04:55:42 87° N 04:59:05 10° E visible
04 Mar -1.9 04:09:42 30° E 04:09:42 30° E 04:11:34 10° E visible
04 Mar -3.8 05:42:40 18° W 05:45:02 83° S 05:48:24 10° ESE visible
05 Mar -0.3 03:24:00 10° E 03:24:00 10° E 03:24:02 10° E visible
05 Mar -3.9 04:56:57 60° W 04:57:30 89° N 05:00:53 10° E visible
06 Mar -2.2 04:11:15 35° E 04:11:15 35° E 04:13:20 10° E visible
06 Mar -3.5 05:44:12 16° W 05:46:43 55° SSW 05:50:01 10° ESE visible
